Flag for Germany Weather past 2 weeks in Sondershausen, Thuringia, Germany

Now
34 °F

Overcast.


Feels Like: 29 °F
Forecast: 33 / 36 °F
Wind: 6 mph from Southwest

Location: Erfurt-Bindersleben

Current Time: Jan 26, 2015 at 12:03:26 PM

Latest Report: Jan 26, 2015 at 11:00 AM


Visibility: 19 mi

Pressure: 30.21 "Hg

Humidity: 92%

Dew point: 32 °F

Location of SondershausenLocation

Historic Weather in Sondershausen — Graph

°F

Sondershausen temperature yesterday

Maximum temperature yesterday: 34 °F (at 7:00 PM)
Minimum temperature yesterday: 31 °F (at 8:00 AM)
Average temperature yesterday: 33 °F

Past Weeks' High & Low Weather Summary

 TemperatureHumidityPressure
High52 °F (Jan 13, 6:00 PM)100% (Jan 16, 10:00 PM)30.38 "Hg (Jan 16, 10:00 PM)
Low20 °F (Jan 24, 9:00 AM)50% (Jan 13, 3:00 PM)29.62 "Hg (Jan 15, 6:00 PM)
Average35 °F88%30.00 "Hg
* Reported Jan 11 11:00 AM — Jan 26 11:00 AM, Sondershausen, Weather by CustomWeather, © 2014

Note: Actual official high and low records may vary slightly from our data, if they occured in-between our weather recording intervals... More about our weather records

Advertising

Sondershausen weather history for previous 24 hours

 ConditionsComfort  
Time TempWeatherWind HumidityBarometerVisibility
11:00 AM
Jan 26
34 °FOvercast.6 mph92%30.21 "Hg19 mi
10:00 AM34 °FOvercast.6 mph93%30.23 "Hg16 mi
9:00 AM34 °FOvercast.3 mph93%30.26 "Hg16 mi
8:00 AM34 °FOvercast.6 mph93%30.27 "Hg9 mi
7:00 AM34 °FOvercast.5 mph93%30.28 "Hg9 mi
6:00 AM34 °FOvercast.5 mph95%30.29 "Hg9 mi
5:00 AM33 °FOvercast.3 mph96%30.30 "Hg9 mi
4:00 AM33 °FOvercast.2 mph97%30.32 "Hg9 mi
3:00 AM33 °FOvercast.3 mph98%30.32 "Hg7 mi
2:00 AM33 °FOvercast.5 mph97%30.33 "Hg7 mi
1:00 AM33 °FOvercast.6 mph96%30.34 "Hg9 mi
12:00 AM33 °FOvercast.5 mph97%30.35 "Hg7 mi
11:00 PM
Jan 25
33 °FSnow flurries. Overcast.3 mph97%30.35 "Hg5 mi
10:00 PM33 °FSnow flurries. Overcast.5 mph97%30.36 "Hg7 mi
9:00 PM33 °FSnow flurries. Overcast.5 mph97%30.36 "Hg9 mi
8:00 PM34 °FSnow flurries. Overcast.3 mph97%30.37 "Hg9 mi
7:00 PM34 °FOvercast.3 mph97%30.36 "Hg12 mi
6:00 PM33 °FOvercast.5 mph98%30.35 "Hg10 mi
5:00 PM33 °FSnow flurries. Low clouds.5 mph100%30.35 "Hg4 mi
4:00 PM33 °FSnow flurries. Low clouds.7 mph97%30.34 "Hg2 mi
3:00 PM33 °FLow clouds.7 mph97%30.34 "Hg12 mi
2:00 PM33 °FSnow flurries. Low clouds.6 mph98%30.34 "Hg4 mi
1:00 PM33 °FSnow flurries. Low clouds.6 mph93%30.36 "Hg2 mi
12:00 PM33 °FLow clouds.6 mph93%30.36 "Hg16 mi
Weather by CustomWeather, © 2014

See weather overviewHow to use our weather pages